KALMAR current weather conditions

sailwx.info

Wind from 240 at 13 knots

Air temperature 4.0° C
Visibility: greater than 5.4 NM
Dewpoint 1.0° C

Last reported at 2014-Dec-20 07:20 UTC.
Time now 2014-Dec-20 08:43 UTC

Location: N 56°44' E 016°18'.
View on Google Maps.

See reports from other nearby stations

  
Tides and Currents Weather Stations Pressure Air Temp Water Temp Dewpoint Dewpoint Depression Visibility Wind Speed Wind Dir Waves Ship Positions
date/time (UTC)wind fromknots sea level pressurealtimeterstation pressurevisibilityair tempwater tempwave heightnotes
2014-Dec-20 07:20 240 13 5.4 4.0
2014-Dec-20 06:50 230 12 5.4 4.0
2014-Dec-20 06:20 230 10 5.4 4.0
2014-Dec-20 05:50 240 11 5.4 4.0
2014-Dec-20 05:20 230 15 5.4 4.0
2014-Dec-20 04:50 240 13 5.4 4.0
2014-Dec-20 04:20 240 13 5.4 4.0
2014-Dec-20 03:50 250 11 5.4 4.0
2014-Dec-20 03:20 260 17 5.4 4.0 Light drizzle.
2014-Dec-20 02:50 250 15 5.4 4.0
2014-Dec-20 02:20 250 18 5.4 4.0
2014-Dec-20 01:50 250 16 5.4 4.0
2014-Dec-20 01:20 260 17 5.4 4.0
2014-Dec-20 00:50 250 13 5.4 4.0
2014-Dec-20 00:20 250 13 5.4 4.0
2014-Dec-19 23:50 250 14 5.4 4.0
2014-Dec-19 23:20 250 13 5.4 4.0
2014-Dec-19 22:50 240 14 5.4 4.0 Light rain.
2014-Dec-19 22:20 240 12 5.4 4.0
2014-Dec-19 21:50 240 12 5.4 4.0
2014-Dec-19 21:20 240 11 5.4 3.0
2014-Dec-19 20:50 240 11 5.4 3.0
2014-Dec-19 20:20 250 11 5.4 3.0
2014-Dec-19 19:50 250 10 5.4 4.0
2014-Dec-19 19:20 250 12 5.4 3.0
2014-Dec-19 18:50 250 11 3.0
2014-Dec-19 18:20 250 12 5.4 4.0
2014-Dec-19 17:50 250 20 3.2 5.0 Rain showers.
2014-Dec-19 17:20 220 10 5.4 5.0
2014-Dec-19 16:50 220 7 5.4 5.0
2014-Dec-19 16:20 230 9 5.0
2014-Dec-19 15:50 230 9 5.4 5.0
2014-Dec-19 15:20 240 9 5.4 5.0
2014-Dec-19 14:50 240 11 5.4 6.0
2014-Dec-19 14:20 240 9 6.0
2014-Dec-19 13:50 250 11 7.0
2014-Dec-19 13:20 250 13 7.0
2014-Dec-19 12:50 250 10 7.0
2014-Dec-19 12:20 250 12 8.0
2014-Dec-19 11:50 240 12 5.4 8.0
2014-Dec-19 11:20 230 10 5.4 8.0
2014-Dec-19 10:50 230 10 5.4 8.0
2014-Dec-19 10:20 230 10 5.4 8.0
2014-Dec-19 09:50 240 12 5.4 8.0
2014-Dec-19 09:20 230 10 5.4 7.0
2014-Dec-19 08:50 230 10 5.4 7.0
2014-Dec-19 08:20 240 9 5.4 7.0
2014-Dec-19 07:50 250 12 5.4 7.0
2014-Dec-19 07:20 240 11 5.4 8.0
2014-Dec-19 06:50 260 12 5.4 8.0
2014-Dec-19 06:20 250 10 5.4 8.0
2014-Dec-19 05:50 260 16 gusting 27 5.4 8.0
2014-Dec-19 05:20 260 14 5.4 8.0
2014-Dec-19 04:50 260 16 5.4 9.0
2014-Dec-19 04:20 260 15 5.4 9.0
2014-Dec-19 03:50 260 17 5.410.0
2014-Dec-19 03:20 220 9 5.410.0
2014-Dec-19 02:50 220 9 5.410.0
2014-Dec-19 02:20 210 8 5.4 9.0
2014-Dec-19 01:50 210 7 2.4 9.0 Mist.
2014-Dec-19 01:20 210 7 4.9 9.0
2014-Dec-19 00:50 210 7 4.9 9.0
2014-Dec-19 00:20 200 7 5.4 8.0
2014-Dec-18 23:50 200 6 5.4 8.0
2014-Dec-18 23:20 200 6 5.4 8.0
2014-Dec-18 22:50 190 7 3.8 7.0 Mist.
2014-Dec-18 22:20 170 6 1.5 7.0 Mist.
2014-Dec-18 21:50 170 6 1.9 7.0
2014-Dec-18 21:20 170 7 1.5 6.0 Mist.
2014-Dec-18 20:50 160 6 0.2 6.0 Fog.
2014-Dec-18 20:20 150 5 0.4 6.0 Drizzle.
2014-Dec-18 19:50 160 4 1.3 6.0 Light rain.
2014-Dec-18 19:20 170 3 2.2 7.0 Light rain.
2014-Dec-18 18:50 200 4 3.2 7.0 Light rain.
2014-Dec-18 18:20 190 4 3.2 7.0 Light rain.
2014-Dec-18 17:50 170 5 2.7 7.0 Light rain.
2014-Dec-18 17:20 190 6 2.2 7.0 Drizzle.
2014-Dec-18 16:50 180 7 3.8 7.0
2014-Dec-18 16:20 180 6 2.7 6.0 Mist.
2014-Dec-18 15:50 190 6 3.8 6.0 Mist.
2014-Dec-18 15:20 170 8 4.3 6.0 Mist.
2014-Dec-18 14:50 160 8 4.3 6.0 Mist.
2014-Dec-18 14:20 160 8 4.3 5.0 Mist.
2014-Dec-18 13:50 180 6 5.4 6.0
2014-Dec-18 13:20 180 6 5.4 5.0
2014-Dec-18 12:50 210 8 5.4 5.0
2014-Dec-18 12:20 210 9 5.4 5.0
2014-Dec-18 11:50 200 7 5.4 5.0
2014-Dec-18 11:20 220 7 5.4 5.0
2014-Dec-18 10:50 210 6 5.4 5.0
2014-Dec-18 10:20 230 6 5.4 4.0
2014-Dec-18 09:50 210 5 5.4 4.0
2014-Dec-18 09:20 210 5 5.4 3.0
2014-Dec-18 08:50 200 6 5.4 3.0
2014-Dec-18 08:20 210 7 5.4 3.0